Weather History for Louisa, VA

Change the Weather History Date:

Tuesday, January 24, 2012

  Actual Average (KCHO) Record (KCHO)
Temperature  
Mean Temperature 50 °F 35 °F  
Max Temperature 62 °F 45 °F 75 °F (1967)
Min Temperature 39 °F 26 °F 2 °F (1963)
Degree Days  
Heating Degree Days 14 30  
Month to date heating degree days 720  
Since 1 July heating degree days 2456  
Cooling Degree Days 0 0  
Month to date cooling degree days 0  
Year to date cooling degree days 0  
Moisture  
Dew Point 40 °F    
Average Humidity 75    
Maximum Humidity 93    
Minimum Humidity 37    
Precipitation  
Precipitation 0.00 in 0.10 in 1.16 in (1953)
Month to date precipitation 2.16  
Year to date precipitation 2.16  
Sea Level Pressure  
Sea Level Pressure 30.05 in    
Wind  
Wind Speed 4 mph (WSW)    
Max Wind Speed 10 mph    
Max Gust Speed 16 mph    
Visibility 8 miles    
Events Fog    
T = Trace of Precipitation, MM = Missing Value Source: NWS Daily Summary

Daily Weather History Graph

Daily Weather History Graph

Search for Another Location

Airport:

Trip Planner

Search our weather history database for the weather conditions in past years. The results will help you decide how hot, cold, wet, or windy it might be!

Date:

Astronomy

Jan. 24, 2012 Rise Set
Actual Time 7:22 AM EST 5:25 PM EST
Civil Twilight 6:54 AM EST 5:53 PM EST
Nautical Twilight 6:22 AM EST 6:25 PM EST
Astronomical Twilight 5:51 AM EST 6:57 PM EST
Moon 7:53 AM EST (1/24) 7:12 PM EST (1/24)
Length of Visible Light 10h 59m
Length of Day
10h 02m
New Moon, 2% of the Moon is Illuminated
Jan 24
New Moon
Jan 30
First Quarter
Feb 7
Full
Feb 14
Last Quarter
Feb 21
New

Hourly Weather History & Observations

Time (EST) Temp. Windchill Dew Point Humidity Pressure Visibility Wind Dir Wind Speed Gust Speed Precip Events Conditions
12:15 AM 44.6 °F 41.4 °F 42.8 °F 93% 29.94 in 10.0 mi SSW 5.8 mph - N/A   Overcast
12:35 AM 44.6 °F 40.7 °F 42.8 °F 93% 29.94 in 10.0 mi SSW 6.9 mph - N/A   Overcast
12:55 AM 44.6 °F 42.2 °F 42.8 °F 93% 29.95 in 10.0 mi SSW 4.6 mph - N/A   Overcast
1:15 AM 44.6 °F - 42.8 °F 93% 29.95 in 10.0 mi Calm Calm - N/A   Overcast
1:35 AM 44.6 °F 42.2 °F 42.8 °F 93% 29.95 in 10.0 mi SSW 4.6 mph - N/A   Overcast
1:55 AM 44.6 °F 42.2 °F 42.8 °F 93% 29.96 in 10.0 mi SSW 4.6 mph - N/A   Overcast
2:35 AM 44.6 °F 42.2 °F 42.8 °F 93% 29.97 in 10.0 mi SW 4.6 mph - N/A   Overcast
2:55 AM 44.6 °F - 42.8 °F 93% 29.98 in 10.0 mi Calm Calm - N/A   Overcast
3:35 AM 44.6 °F 41.4 °F 42.8 °F 93% 29.98 in 10.0 mi SSW 5.8 mph - N/A   Overcast
3:55 AM 44.6 °F 41.4 °F 42.8 °F 93% 29.98 in 7.0 mi WSW 5.8 mph - N/A   Overcast
4:15 AM 44.6 °F 42.2 °F 42.8 °F 93% 29.98 in 7.0 mi SW 4.6 mph - N/A   Overcast
4:35 AM 44.6 °F 43.1 °F 42.8 °F 93% 29.99 in 7.0 mi WSW 3.5 mph - N/A   Overcast
4:55 AM 44.6 °F 41.4 °F 42.8 °F 93% 30.00 in 7.0 mi WSW 5.8 mph - N/A   Overcast
5:15 AM 44.6 °F 42.2 °F 42.8 °F 93% 30.00 in 5.0 mi SW 4.6 mph - N/A   Overcast
5:35 AM 44.6 °F 43.1 °F 42.8 °F 93% 30.01 in 4.0 mi SW 3.5 mph - N/A   Overcast
5:55 AM 44.6 °F 43.1 °F 42.8 °F 93% 30.01 in 1.8 mi West 3.5 mph - N/A   Overcast
6:15 AM 44.6 °F 42.2 °F 42.8 °F 93% 30.02 in 0.8 mi WSW 4.6 mph - N/A   Overcast
6:35 AM 44.6 °F - 42.8 °F 93% 30.03 in 0.5 mi Calm Calm - N/A Fog Fog
6:55 AM 44.6 °F 42.2 °F 42.8 °F 93% 30.03 in 0.5 mi SSW 4.6 mph - N/A Fog Fog
7:15 AM 44.6 °F 42.2 °F 42.8 °F 93% 30.04 in 0.2 mi WSW 4.6 mph - N/A Fog Fog
7:35 AM 44.6 °F - 42.8 °F 93% 30.04 in 0.2 mi Calm Calm - N/A Fog Fog
7:55 AM 44.6 °F 40.7 °F 42.8 °F 93% 30.05 in 0.2 mi West 6.9 mph - N/A Fog Fog
8:15 AM 44.6 °F 43.1 °F 42.8 °F 93% 30.06 in 0.2 mi WSW 3.5 mph - N/A Fog Fog
8:35 AM 44.6 °F 41.4 °F 42.8 °F 93% 30.06 in 0.8 mi SW 5.8 mph - N/A   Overcast
9:15 AM 44.6 °F - 42.8 °F 93% 30.07 in 1.5 mi Calm Calm - N/A   Overcast
9:35 AM 44.6 °F - 42.8 °F 93% 30.08 in 5.0 mi Calm Calm - N/A   Overcast
9:55 AM 46.4 °F - 44.6 °F 93% 30.09 in 10.0 mi Calm Calm - N/A   Mostly Cloudy
10:15 AM 48.2 °F - 44.6 °F 87% 30.09 in 10.0 mi Calm Calm - N/A   Scattered Clouds
10:35 AM 51.8 °F - 44.6 °F 76% 30.08 in 10.0 mi Calm Calm - N/A   Clear
10:55 AM 55.4 °F - 44.6 °F 67% 30.07 in 10.0 mi WSW 3.5 mph - N/A   Clear
11:15 AM 57.2 °F - 42.8 °F 59% 30.07 in 10.0 mi West 6.9 mph - N/A   Clear
11:35 AM 57.2 °F - 42.8 °F 59% 30.06 in 10.0 mi SW 5.8 mph - N/A   Clear
11:55 AM 59.0 °F - 42.8 °F 55% 30.05 in 10.0 mi WSW 5.8 mph - N/A   Clear
12:15 PM 59.0 °F - 39.2 °F 48% 30.05 in 10.0 mi West 8.1 mph - N/A   Clear
12:35 PM 60.8 °F - 37.4 °F 42% 30.05 in 10.0 mi West 10.4 mph - N/A   Clear
12:55 PM 60.8 °F - 37.4 °F 42% 30.04 in 10.0 mi West 9.2 mph 16.1 mph N/A   Clear
1:35 PM 60.8 °F - 37.4 °F 42% 30.03 in 10.0 mi WSW 6.9 mph - N/A   Clear
1:55 PM 60.8 °F - 37.4 °F 42% 30.03 in 10.0 mi West 6.9 mph - N/A   Clear
2:15 PM 60.8 °F - 37.4 °F 42% 30.02 in 10.0 mi SW 5.8 mph - N/A   Clear
2:35 PM 62.6 °F - 37.4 °F 39% 30.02 in 10.0 mi West 10.4 mph - N/A   Clear
2:55 PM 62.6 °F - 37.4 °F 39% 30.03 in 10.0 mi WSW 5.8 mph - N/A   Clear
3:15 PM 62.6 °F - 37.4 °F 39% 30.03 in 10.0 mi WSW 5.8 mph - N/A   Clear
3:35 PM 62.6 °F - 37.4 °F 39% 30.04 in 10.0 mi WSW 4.6 mph - N/A   Clear
3:55 PM 62.6 °F - 35.6 °F 37% 30.05 in 10.0 mi West 6.9 mph - N/A   Clear
4:15 PM 60.8 °F - 35.6 °F 39% 30.06 in 10.0 mi West 6.9 mph - N/A   Clear
4:35 PM 60.8 °F - 37.4 °F 42% 30.06 in 10.0 mi SW 3.5 mph - N/A   Clear
4:55 PM 59.0 °F - 37.4 °F 45% 30.07 in 10.0 mi Calm Calm - N/A   Clear
5:15 PM 53.6 °F - 39.2 °F 58% 30.07 in 10.0 mi Calm Calm - N/A   Clear
5:35 PM 48.2 °F - 41.0 °F 76% 30.08 in 10.0 mi Calm Calm - N/A   Clear
5:55 PM 46.4 °F - 37.4 °F 71% 30.09 in 10.0 mi Calm Calm - N/A   Clear
6:15 PM 44.6 °F - 37.4 °F 76% 30.10 in 10.0 mi Calm Calm - N/A   Clear
6:35 PM 44.6 °F - 37.4 °F 76% 30.11 in 10.0 mi Calm Calm - N/A   Clear
6:55 PM 41.0 °F - 37.4 °F 87% 30.11 in 10.0 mi Calm Calm - N/A   Clear
7:15 PM 42.8 °F - 37.4 °F 81% 30.12 in 10.0 mi Calm Calm - N/A   Clear
7:35 PM 41.0 °F - 37.4 °F 87% 30.13 in 10.0 mi Calm Calm - N/A   Clear
7:55 PM 39.2 °F - 37.4 °F 93% 30.14 in 10.0 mi Calm Calm - N/A   Clear
8:35 PM 42.8 °F 40.1 °F 35.6 °F 76% 30.15 in 10.0 mi West 4.6 mph - N/A   Clear
8:55 PM 42.8 °F 39.3 °F 35.6 °F 76% 30.15 in 10.0 mi West 5.8 mph - N/A   Clear
9:15 PM 44.6 °F 42.2 °F 35.6 °F 71% 30.16 in 10.0 mi West 4.6 mph - N/A   Clear
9:35 PM 42.8 °F - 35.6 °F 76% 30.17 in 10.0 mi Calm Calm - N/A   Clear
10:35 PM 37.4 °F 34.9 °F 35.6 °F 93% 30.17 in 10.0 mi WNW 3.5 mph - N/A   Clear
10:55 PM 37.4 °F 34.9 °F 33.8 °F 87% 30.18 in 10.0 mi NNW 3.5 mph - N/A   Clear
11:15 PM 33.8 °F - 30.2 °F 87% 30.18 in 10.0 mi Calm Calm - N/A   Clear
11:35 PM 35.6 °F - 33.8 °F 93% 30.19 in 10.0 mi Calm Calm - N/A   Clear
11:55 PM 33.8 °F - 32.0 °F 93% 30.19 in 10.0 mi Calm Calm - N/A   Clear